Regional Weather Roundup
Issued by NWS

Home | Current Version | Previous Version | Graphics & Text | Print | Product List | Glossary On
Versions: 1 2 3 4 5 6 7 8 9 10 11 12 13 14 15 16 17 18 19 20 21 22 23 24 25 26 27 28 29 30 31 32 33 34 35 36 37 38 39 40 41 42 43 44 45 46 47 48 49 50
000
ASUS43 KDTX 291010
RWRMI
MICHIGAN HOURLY REGIONAL WEATHER ROUNDUP
NATIONAL WEATHER SERVICE DETROIT/PONTIAC MI
600 AM EDT TUE JUL 29 2014

NOTE: "FAIR" INDICATES FEW OR NO CLOUDS BELOW 12,000 FEET WITH NO
SIGNIFICANT WEATHER AND/OR OBSTRUCTION TO VISIBILITY.

MIZ047>049-052>055-059>063-066>070-074>076-081>083-291100-
SOUTHEAST LOWER MICHIGAN

CITY           SKY/WX    TMP DP  RH WIND       PRES   REMARKS
ADRIAN         CLEAR     47  46  97 CALM      30.02R
ALMA           CLOUDY    50  48  95 CALM      29.99S
ANN ARBOR      CLEAR     44  42  93 SW3       30.00S
BAD AXE        PTCLDY    46  45  97 CALM      29.96R
DETROIT CITY   CLOUDY    58  46  64 W5        29.98F
DETROIT        CLOUDY    52  47  83 W6        30.00S
FLINT          CLEAR     50  46  86 SW3       29.99S
GROSSE ILE     CLOUDY    55  48  76 W3        29.98S
HILLSDALE        N/A     46  46 100 CALM      30.01S FOG
HOWELL         CLEAR     47  46  96 SW3       30.00S

CITY           SKY/WX    TMP DP  RH WIND       PRES   REMARKS
JACKSON        CLEAR     48  46  93 CALM      30.01S
LAMBERTVILLE   CLEAR     48  46  93 CALM      30.01S
LANSING        CLEAR     49  46  90 SW3       30.00S
LAPEER         NOT AVBL
MASON          CLEAR     45  44  97 CALM      30.00S
MONROE         MOCLDY    50  48  93 CALM      29.99S
MT. CLEMENS    MOCLDY    56  47  72 W7        29.96F
PONTIAC        PTCLDY    52  46  80 W6        29.98S
PORT HOPE        N/A     52  50  93 SW7       29.93R
PORT HURON     MOCLDY    52  48  87 CALM      29.97S
TRI CITIES     CLEAR     51  48  89 W8        29.98S
YPSILANTI      CLEAR     51  45  79 W3        30.00S
$$
MIZ043>046-050>051-056>058-064>065-071>073-077>080-291100-
SOUTHWEST LOWER MICHIGAN

CITY           SKY/WX    TMP DP  RH WIND       PRES   REMARKS
BATTLE CREEK   CLEAR     51  47  86 SW5       30.02R
BENTON HARBOR  PTCLDY    47  46  97 CALM      30.02S
BIG RAPIDS     CLOUDY    52  52 100 S5        29.98S
COLDWATER      CLEAR     49  48  97 CALM      30.02S
HOLLAND        CLOUDY    53  50  89 CALM      30.01S
GRAND RAPIDS   MOCLDY    53  49  86 SW3       30.01R
KALAMAZOO      CLEAR     50  47  89 CALM      30.03R
MARSHALL       PTCLDY    47  46  97 CALM      30.01S
MUSKEGON       CLOUDY    56  52  86 S3        30.00S
$$
MIZ016>042-291100-
NORTHERN LOWER MICHIGAN

CITY           SKY/WX    TMP DP  RH WIND       PRES   REMARKS
ALPENA         CLOUDY    56  51  84 W3        29.91S
BEAVER ISLAND  CLOUDY    56  55  96 NW6       29.93S
BELLAIRE       CLOUDY    52  49  89 CALM      29.94S
CADILLAC       CLOUDY    52  50  93 SW3       29.97S
CHARLEVOIX     CLOUDY    60  57  89 NW6       29.96S
FRANKFORT      MOSUNNY   52  49  90 CALM      29.96S
GAYLORD        PTCLDY    50  48  93 SW6       29.94S
GRAYLING       MOCLDY    51  49  93 W3        29.96S
HARBOR SPRINGS CLOUDY    60  56  88 W3        29.92S
HOUGHTON LAKE  CLOUDY    56  51  84 W7        29.96S
MANISTEE       PTCLDY    48  46  93 E3        29.98S
OSCODA         CLOUDY    55  50  85 W3        29.93S
PELLSTON       CLOUDY    57  55  93 W5        29.92S
TRAVERSE CITY  PTCLDY    56  50  80 VRB5      29.94S
$$
MIZ007>008-015-291100-
EASTERN UPPER MICHIGAN

CITY           SKY/WX    TMP DP  RH WIND       PRES   REMARKS
KINROSS        CLOUDY    54  52  94 W7        29.90S
MACKINAC ISLAN MOCLDY    55  54  96 NW7       29.90S
NEWBERRY       CLOUDY    52  51  97 NW3       29.92S
S. S. MARIE    CLOUDY    52  50  93 NW6       29.90R FOG
$$
MIZ004>006-011>014-085-291100-
CENTRAL UPPER MICHIGAN

CITY           SKY/WX    TMP DP  RH WIND       PRES   REMARKS
MANISTIQUE     PTCLDY    53  53  97 NW6       29.94R
ESCANABA       CLEAR     55  52  88 NW6       29.96R
MENOMINEE      PTCLDY    57  54  88 NW6       29.97S
SAWYER-GWINN   PTCLDY    55  51  85 NW7       29.97S
$$
MIZ001>003-009>011-084-291100-
WESTERN UPPER MICHIGAN

CITY           SKY/WX    TMP DP  RH WIND       PRES   REMARKS
IRON MOUNTAIN  CLEAR     55  51  86 NW5       29.98S
COPPER HARBOR    N/A     58  53  84 N14       29.96R
$$

ABBREVIATIONS USED IN REMARKS
   TC - TEMPERATURE IN CELSIUS
  WCI - WIND CHILL INDEX
   HX - HEAT INDEX
  VSB - VISIBILITY




USA.gov is the U.S. government's official web portal to all federal, state and local government web resources and services.